| time (UTC) | temp F | wind direction | speed knots | gust knots | rain 1hr in | rain 24hr in | rain mn in | humidity % | barometer mb |
| 20260906224531 | 56 | 279 | 4.3 | 7.8 | 0.00 | 0.48 | 0.31 | 92 | 1018.3 |
| 20260906223031 | 56 | 281 | 3.5 | 7.0 | 0.00 | 0.48 | 0.31 | 92 | 1018.2 |
| 20260906221531 | 56 | 296 | 3.5 | 7.0 | 0.00 | 0.48 | 0.31 | 92 | 1018.1 |
| 20260906220029 | 56 | 306 | 3.5 | 7.8 | 0.00 | 0.48 | 0.31 | 91 | 1018.1 |
| 20260906214527 | 56 | 306 | 2.6 | 5.2 | 0.00 | 0.48 | 0.31 | 91 | 1018.1 |
| 20260906213027 | 55 | 306 | 3.5 | 5.2 | 0.00 | 0.48 | 0.31 | 93 | 1018.1 |
| 20260906211526 | 55 | 355 | 3.5 | 8.7 | 0.00 | 0.48 | 0.31 | 93 | 1018.1 |
| 20260906210025 | 55 | 343 | 3.5 | 7.8 | 0.00 | 0.48 | 0.31 | 92 | 1018.2 |
| 20260906204525 | 55 | 18 | 6.1 | 7.8 | 0.00 | 0.48 | 0.31 | 92 | 1018.2 |
| 20260906203023 | 55 | 344 | 3.5 | 7.0 | 0.00 | 0.48 | 0.31 | 91 | 1018.3 |
| 20260906201523 | 55 | 330 | 2.6 | 7.0 | 0.00 | 0.48 | 0.31 | 91 | 1018.4 |
| 20260906200021 | 55 | 341 | 3.5 | 7.8 | 0.00 | 0.48 | 0.31 | 91 | 1018.5 |
| 20260906194525 | 55 | 334 | 5.2 | 8.7 | 0.00 | 0.48 | 0.31 | 90 | 1018.6 |
| 20260906193021 | 55 | 300 | 4.3 | 8.7 | 0.00 | 0.48 | 0.31 | 90 | 1018.6 |
| 20260906191520 | 55 | 355 | 5.2 | 10.4 | 0.00 | 0.48 | 0.31 | 90 | 1018.5 |
| 20260906190018 | 55 | 335 | 5.2 | 9.6 | 0.00 | 0.48 | 0.31 | 89 | 1018.6 |
| 20260906184516 | 55 | 39 | 5.2 | 9.6 | 0.00 | 0.48 | 0.31 | 90 | 1018.5 |
| 20260906183017 | 54 | 346 | 2.6 | 7.0 | 0.00 | 0.48 | 0.31 | 91 | 1018.7 |
| 20260906181511 | 54 | 335 | 5.2 | 8.7 | 0.00 | 0.48 | 0.31 | 90 | 1019.0 |
| 20260906180008 | 53 | 340 | 4.3 | 7.0 | 0.00 | 0.48 | 0.31 | 92 | 1019.1 |
| 20260906174509 | 53 | 355 | 3.5 | 7.8 | 0.00 | 0.48 | 0.31 | 95 | 1019.5 |
| 20260906173003 | 52 | 336 | 2.6 | 6.1 | 0.00 | 0.48 | 0.31 | 96 | 1019.7 |
| 20260906171502 | 52 | 263 | 6.1 | 9.6 | 0.00 | 0.48 | 0.31 | 96 | 1020.3 |
| 20260906170005 | 52 | 273 | 7.0 | 9.6 | 0.00 | 0.48 | 0.31 | 96 | 1020.3 |
| 20260906164502 | 52 | 293 | 6.1 | 9.6 | 0.00 | 0.48 | 0.31 | 96 | 1020.2 |
| 20260906163106 | 52 | 279 | 4.3 | 10.4 | 0.00 | 0.48 | 0.31 | 96 | 1019.9 |
| 20260906161602 | 52 | 278 | 6.1 | 8.7 | 0.01 | 0.48 | 0.31 | 97 | 1020.1 |
| 20260906160059 | 51 | 302 | 7.8 | 9.6 | 0.11 | 0.48 | 0.31 | 97 | 1020.1 |
| 20260906154557 | 51 | 290 | 8.7 | 12.2 | 0.26 | 0.48 | 0.31 | 96 | 1020.3 |
| 20260906153057 | 51 | 284 | 7.8 | 13.9 | 0.28 | 0.48 | 0.31 | 96 | 1020.5 |
| 20260906151610 | 51 | 254 | 7.8 | 15.6 | 0.27 | 0.47 | 0.30 | 96 | 1020.8 |
| 20260906150100 | 50 | 272 | 10.4 | 14.8 | 0.17 | 0.37 | 0.20 | 96 | 1020.6 |
| 20260906144552 | 51 | 271 | 12.2 | 20.0 | 0.01 | 0.23 | 0.04 | 96 | 1021.1 |
| 20260906143106 | 52 | 291 | 9.6 | 14.8 | 0.00 | 0.22 | 0.03 | 96 | 1020.6 |
| 20260906141548 | 52 | 338 | 2.6 | 5.2 | 0.00 | 0.22 | 0.03 | 96 | 1020.3 |
| 20260906140050 | 51 | 348 | 2.6 | 4.3 | 0.00 | 0.22 | 0.03 | 96 | 1020.3 |
| 20260906134553 | 51 | 292 | 0.9 | 4.3 | 0.00 | 0.25 | 0.03 | 96 | 1020.1 |
| 20260906133044 | 52 | 292 | 2.6 | 4.3 | 0.00 | 0.25 | 0.03 | 96 | 1020.2 |
| 20260906131543 | 52 | 292 | 1.7 | 4.3 | 0.00 | 0.25 | 0.03 | 96 | 1019.9 |
| 20260906130040 | 52 | 283 | 2.6 | 8.7 | 0.00 | 0.25 | 0.03 | 96 | 1020.6 |
| 20260906124544 | 52 | 313 | 7.8 | 12.2 | 0.00 | 0.25 | 0.03 | 96 | 1020.5 |
| 20260906123109 | 52 | 292 | 7.8 | 13.9 | 0.00 | 0.25 | 0.03 | 96 | 1020.8 |
| 20260906121541 | 52 | 38 | 5.2 | 8.7 | 0.00 | 0.25 | 0.03 | 96 | 1020.8 |
| 20260906120037 | 52 | 41 | 2.6 | 4.3 | 0.00 | 0.25 | 0.03 | 96 | 1020.9 |
| 20260906114536 | 51 | 41 | 1.7 | 3.5 | 0.00 | 0.25 | 0.03 | 96 | 1020.8 |
| 20260906113040 | 51 | 41 | 2.6 | 5.2 | 0.00 | 0.25 | 0.03 | 96 | 1020.4 |
| 20260906111535 | 51 | 34 | 4.3 | 8.7 | 0.00 | 0.25 | 0.03 | 96 | 1020.4 |
| 20260906110034 | 51 | 33 | 4.3 | 8.7 | 0.00 | 0.25 | 0.03 | 96 | 1020.4 |
| 20260906104532 | 51 | 17 | 2.6 | 5.2 | 0.00 | 0.25 | 0.03 | 96 | 1020.6 |
| 20260906103031 | 52 | 30 | 5.2 | 8.7 | 0.00 | 0.25 | 0.03 | 96 | 1020.8 |
| 20260906101530 | 51 | 355 | 4.3 | 8.7 | 0.00 | 0.25 | 0.03 | 96 | 1020.8 |
| 20260906100029 | 51 | 325 | 1.7 | 4.3 | 0.00 | 0.25 | 0.03 | 96 | 1021.2 |
| 20260906094528 | 51 | 339 | 6.1 | 11.3 | 0.00 | 0.25 | 0.03 | 96 | 1021.0 |
| 20260906093026 | 51 | 325 | 1.7 | 7.8 | 0.00 | 0.25 | 0.03 | 96 | 1021.2 |
| 20260906091530 | 52 | 322 | 0.9 | 7.8 | 0.00 | 0.25 | 0.03 | 96 | 1021.9 |
| 20260906090025 | 51 | 335 | 6.1 | 11.3 | 0.00 | 0.25 | 0.03 | 96 | 1021.6 |
| 20260906084524 | 51 | 333 | 7.8 | 10.4 | 0.00 | 0.25 | 0.03 | 96 | 1021.6 |
| 20260906083032 | 51 | 321 | 7.0 | 12.2 | 0.00 | 0.25 | 0.03 | 95 | 1021.4 |
| 20260906081522 | 51 | 307 | 6.1 | 12.2 | 0.00 | 0.25 | 0.03 | 95 | 1021.7 |
| 20260906080028 | 51 | 346 | 9.6 | 13.9 | 0.00 | 0.25 | 0.03 | 95 | 1021.7 |
| 20260906074518 | 51 | 338 | 7.0 | 13.0 | 0.00 | 0.25 | 0.03 | 95 | 1021.6 |
| 20260906073018 | 51 | 302 | 7.8 | 13.0 | 0.01 | 0.25 | 0.03 | 95 | 1022.0 |
| 20260906071515 | 51 | 302 | 9.6 | 13.9 | 0.03 | 0.25 | 0.03 | 95 | 1022.1 |
| 20260906070012 | 51 | 311 | 8.7 | 12.2 | 0.03 | 0.25 | 0.03 | 94 | 1022.1 |
| 20260906064508 | 52 | 283 | 6.1 | 11.3 | 0.03 | 0.25 | 0.03 | 94 | 1023.0 |
| 20260906063007 | 52 | 244 | 2.6 | 6.1 | 0.02 | 0.24 | 0.02 | 94 | 1023.1 |
| 20260906061505 | 52 | 259 | 6.1 | 10.4 | 0.06 | 0.22 | 0.00 | 94 | 1023.1 |
| 20260906060002 | 52 | 277 | 6.1 | 8.7 | 0.07 | 0.22 | 0.22 | 93 | 1022.8 |
| 20260906054501 | 52 | 283 | 5.2 | 8.7 | 0.07 | 0.22 | 0.22 | 93 | 1022.5 |
| 20260906053001 | 52 | 289 | 7.0 | 9.6 | 0.07 | 0.22 | 0.22 | 93 | 1022.2 |
| 20260906051503 | 53 | 224 | 5.2 | 7.8 | 0.03 | 0.16 | 0.16 | 92 | 1023.9 |
| 20260906050059 | 53 | 251 | 2.6 | 6.1 | 0.08 | 0.15 | 0.15 | 91 | 1022.7 |
| 20260906044559 | 52 | 320 | 4.3 | 9.6 | 0.10 | 0.15 | 0.15 | 91 | 1021.9 |
| 20260906043102 | 52 | 338 | 6.1 | 10.4 | 0.10 | 0.15 | 0.15 | 90 | 1021.9 |
| 20260906041601 | 52 | 347 | 7.8 | 12.2 | 0.08 | 0.13 | 0.13 | 90 | 1021.8 |
| 20260906040056 | 53 | 175 | 3.5 | 7.8 | 0.02 | 0.07 | 0.07 | 87 | 1023.6 |
| 20260906034553 | 54 | 242 | 3.5 | 8.7 | 0.00 | 0.05 | 0.05 | 82 | 1022.9 |
| 20260906033106 | 54 | 291 | 1.7 | 3.5 | 0.00 | 0.05 | 0.05 | 81 | 1022.5 |
| 20260906031550 | 54 | 294 | 2.6 | 7.0 | 0.00 | 0.05 | 0.05 | 81 | 1022.2 |
| 20260906030050 | 53 | 338 | 2.6 | 4.3 | 0.00 | 0.05 | 0.05 | 82 | 1021.6 |
| 20260906024548 | 54 | 343 | 4.3 | 7.0 | 0.00 | 0.05 | 0.05 | 82 | 1021.3 |
| 20260906023051 | 54 | 331 | 3.5 | 5.2 | 0.00 | 0.05 | 0.05 | 81 | 1021.3 |
| 20260906021545 | 55 | 329 | 3.5 | 5.2 | 0.00 | 0.05 | 0.05 | 80 | 1021.3 |
| 20260906020056 | 56 | 331 | 1.7 | 7.8 | 0.00 | 0.05 | 0.05 | 78 | 1021.2 |
| 20260906014543 | 56 | 326 | 2.6 | 5.2 | 0.00 | 0.05 | 0.05 | 77 | 1021.2 |
| 20260906013050 | 57 | 336 | 3.5 | 7.8 | 0.00 | 0.05 | 0.05 | 75 | 1021.0 |
| 20260906011557 | 58 | 325 | 6.1 | 10.4 | 0.00 | 0.05 | 0.05 | 74 | 1021.0 |
| 20260906010044 | 59 | 337 | 6.1 | 11.3 | 0.00 | 0.05 | 0.05 | 72 | 1020.9 |
| 20260906004541 | 60 | 318 | 7.0 | 11.3 | 0.00 | 0.05 | 0.05 | 70 | 1021.1 |
| 20260906003041 | 60 | 324 | 6.1 | 11.3 | 0.00 | 0.05 | 0.05 | 72 | 1021.0 |
| 20260906001543 | 60 | 300 | 7.8 | 11.3 | 0.00 | 0.05 | 0.05 | 71 | 1021.0 |
| 20260906000051 | 60 | 310 | 6.1 | 11.3 | 0.00 | 0.05 | 0.05 | 69 | 1021.2 |
| 20260905234539 | 61 | 322 | 5.2 | 10.4 | 0.00 | 0.05 | 0.05 | 71 | 1021.2 |
| 20260905233041 | 60 | 360 | 7.0 | 14.8 | 0.00 | 0.05 | 0.05 | 71 | 1021.1 |
| 20260905231538 | 61 | 310 | 6.1 | 11.3 | 0.00 | 0.05 | 0.05 | 69 | 1021.0 |
| 20260905230037 | 60 | 350 | 7.0 | 12.2 | 0.00 | 0.05 | 0.05 | 73 | 1021.0 |